,,PA_Meas_PMT16A,,PR_Meas_QMR101_102,,RH_Meas_QMH101,,SR_Meas_QMS101,,TA_Meas_QMH101,,GenWind,,GenWind,
time,status,PA,status,PR,status,RH,status,SR,status,TA,status,DirAvg,status,SpdAvg,
2009-09-11, 00:00:04,VALID,918.004,VALID,0,VALID,95.3537,VALID,0,VALID,20.6358,VALID,27,VALID,0.459375,
2009-09-11, 00:01:04,VALID,918.007,VALID,0,VALID,95.3537,VALID,0,VALID,20.6179,VALID,27,VALID,0.544922,
2009-09-11, 00:02:04,VALID,918.003,VALID,0,VALID,95.4909,VALID,0,VALID,20.5984,VALID,27,VALID,0.423438,
2009-09-11, 00:03:04,VALID,917.992,VALID,0,VALID,95.5519,VALID,0,VALID,20.5578,VALID,27,VALID,0.483984,
2009-09-11, 00:04:04,VALID,918.005,VALID,0,VALID,95.5976,VALID,0,VALID,20.5789,VALID,27,VALID,0.175,
2009-09-11, 00:05:04,VALID,917.981,VALID,0,VALID,95.651,VALID,0,VALID,20.5594,VALID,27,VALID,0.212109,
2009-09-11, 00:06:04,VALID,917.968,VALID,0,VALID,95.712,VALID,0,VALID,20.5789,VALID,27,VALID,0.537891,
2009-09-11, 00:07:04,VALID,917.963,VALID,0,VALID,95.7425,VALID,0,VALID,20.5789,VALID,27,VALID,0.358203,
2009-09-11, 00:08:04,VALID,917.945,VALID,0,VALID,95.6815,VALID,0,VALID,20.5383,VALID,27,VALID,0.435937,
2009-09-11, 00:09:04,VALID,917.929,VALID,0,VALID,95.5519,VALID,0,VALID,20.5399,VALID,27,VALID,0.335547,
2009-09-11, 00:10:04,VALID,917.906,VALID,0,VALID,95.468,VALID,0,VALID,20.4603,VALID,27,VALID,0.2875,
2009-09-11, 00:11:04,VALID,917.901,VALID,0,VALID,95.6891,VALID,0,VALID,20.4603,VALID,27,VALID,0.449609,
2009-09-11, 00:12:04,VALID,917.892,VALID,0,VALID,95.8797,VALID,0,VALID,20.4798,VALID,27,VALID,0.426953,
2009-09-11, 00:13:04,VALID,917.882,VALID,0,VALID,95.9941,VALID,0,VALID,20.4798,VALID,27,VALID,0.552734,
2009-09-11, 00:14:04,VALID,917.88,VALID,0,VALID,96.116,VALID,0,VALID,20.5204,VALID,27,VALID,0.644531,
2009-09-11, 00:15:04,VALID,917.89,VALID,0,VALID,96.177,VALID,0,VALID,20.5009,VALID,27,VALID,0.546875,
2009-09-11, 00:16:04,VALID,917.88,VALID,0,VALID,96.299,VALID,0,VALID,20.5204,VALID,27,VALID,0.753125,
2009-09-11, 00:17:04,VALID,917.912,VALID,0,VALID,96.3142,VALID,0,VALID,20.4993,VALID,27,VALID,0.583203,
2009-09-11, 00:18:04,VALID,917.915,VALID,0,VALID,96.3829,VALID,0,VALID,20.5009,VALID,27,VALID,0.391797,
2009-09-11, 00:19:04,VALID,917.934,VALID,0,VALID,96.4972,VALID,0,VALID,20.5594,VALID,27,VALID,0.697656,
2009-09-11, 00:20:04,VALID,917.934,VALID,0,VALID,96.4667,VALID,0,VALID,20.5594,VALID,27,VALID,0.450781,
2009-09-11, 00:21:04,VALID,917.941,VALID,0,VALID,96.5124,VALID,0,VALID,20.5383,VALID,27,VALID,0.458984,
2009-09-11, 00:22:04,VALID,917.931,VALID,0,VALID,96.4743,VALID,0,VALID,20.5594,VALID,27,VALID,0.434766,
2009-09-11, 00:23:04,VALID,917.939,VALID,0,VALID,96.4591,VALID,0,VALID,20.5188,VALID,27,VALID,0.517578,
2009-09-11, 00:24:04,VALID,917.901,VALID,0,VALID,96.4438,VALID,0,VALID,20.5188,VALID,27,VALID,0.705078,
2009-09-11, 00:25:04,VALID,917.919,VALID,0,VALID,96.4591,VALID,0,VALID,20.5009,VALID,27,VALID,0.662891,
2009-09-11, 00:26:04,VALID,917.916,VALID,0,VALID,96.4667,VALID,0,VALID,20.5009,VALID,27,VALID,0.654688,
2009-09-11, 00:27:04,VALID,917.903,VALID,0,VALID,96.4591,VALID,0,VALID,20.5204,VALID,27,VALID,0.723437,
2009-09-11, 00:28:04,VALID,917.927,VALID,0,VALID,96.1694,VALID,0,VALID,20.4033,VALID,27,VALID,0.622656,
2009-09-11, 00:29:04,VALID,917.909,VALID,0,VALID,96.3752,VALID,0,VALID,20.3628,VALID,27,VALID,0.698438,
2009-09-11, 00:30:04,VALID,917.9,VALID,0,VALID,96.3752,VALID,0,VALID,20.3238,VALID,27,VALID,0.591797,
2009-09-11, 00:31:04,VALID,917.912,VALID,0,VALID,96.2609,VALID,0,VALID,20.3058,VALID,27,VALID,0.592578,
2009-09-11, 00:32:04,VALID,917.895,VALID,0,VALID,96.4057,VALID,0,VALID,20.2848,VALID,27,VALID,0.717188,
2009-09-11, 00:33:04,VALID,917.888,VALID,0,VALID,96.4743,VALID,0,VALID,20.2458,VALID,27,VALID,0.684375,
2009-09-11, 00:34:04,VALID,917.86,VALID,0,VALID,96.6192,VALID,0,VALID,20.3058,VALID,27,VALID,0.571484,
2009-09-11, 00:35:04,VALID,917.868,VALID,0,VALID,96.5811,VALID,0,VALID,20.2863,VALID,27,VALID,0.476172,
2009-09-11, 00:36:04,VALID,917.884,VALID,0,VALID,96.6497,VALID,0,VALID,20.3253,VALID,27,VALID,0.376172,
2009-09-11, 00:37:04,VALID,917.898,VALID,0,VALID,96.7107,VALID,0,VALID,20.3643,VALID,27,VALID,0.330469,
2009-09-11, 00:38:04,VALID,917.911,VALID,0,VALID,96.6878,VALID,0,VALID,20.3838,VALID,27,VALID,0.313281,
2009-09-11, 00:39:04,VALID,917.96,VALID,0,VALID,96.642,VALID,0,VALID,20.3643,VALID,27,VALID,0.435937,
2009-09-11, 00:40:04,VALID,917.938,VALID,0,VALID,96.6268,VALID,0,VALID,20.3238,VALID,27,VALID,0.398438,
2009-09-11, 00:41:04,VALID,917.991,VALID,0,VALID,96.6649,VALID,0,VALID,20.3643,VALID,27,VALID,0.311328,
2009-09-11, 00:42:04,VALID,917.969,VALID,0,VALID,96.7107,VALID,0,VALID,20.3433,VALID,27,VALID,0.273047,
2009-09-11, 00:43:04,VALID,917.961,VALID,0,VALID,96.6878,VALID,0,VALID,20.3433,VALID,27,VALID,0.471484,
2009-09-11, 00:44:04,VALID,917.927,VALID,0,VALID,96.7564,VALID,0,VALID,20.3823,VALID,27,VALID,0.555859,
2009-09-11, 00:45:04,VALID,917.921,VALID,0,VALID,96.764,VALID,0,VALID,20.4033,VALID,27,VALID,0.622266,
2009-09-11, 00:46:04,VALID,917.911,VALID,0,VALID,96.7945,VALID,0,VALID,20.4228,VALID,27,VALID,0.770312,
2009-09-11, 00:47:04,VALID,917.907,VALID,0,VALID,96.7488,VALID,0,VALID,20.3823,VALID,27,VALID,0.739844,
2009-09-11, 00:48:04,VALID,917.861,VALID,0,VALID,96.6573,VALID,0,VALID,20.3238,VALID,27,VALID,0.847656,
2009-09-11, 00:49:04,VALID,917.865,VALID,0,VALID,96.7335,VALID,0,VALID,20.3238,VALID,27,VALID,0.839063,
2009-09-11, 00:50:04,VALID,917.864,VALID,0,VALID,96.764,VALID,0,VALID,20.3448,VALID,27,VALID,0.928906,
2009-09-11, 00:51:04,VALID,917.882,VALID,0,VALID,96.825,VALID,0,VALID,20.3628,VALID,27,VALID,0.741797,
2009-09-11, 00:52:04,VALID,917.879,VALID,0,VALID,96.8098,VALID,0,VALID,20.3838,VALID,27,VALID,0.447266,
2009-09-11, 00:53:04,VALID,917.878,VALID,0,VALID,96.825,VALID,0,VALID,20.3628,VALID,27,VALID,0.666016,
2009-09-11, 00:54:04,VALID,917.901,VALID,0,VALID,96.8021,VALID,0,VALID,20.3433,VALID,27,VALID,0.552734,
2009-09-11, 00:55:04,VALID,917.904,VALID,0,VALID,96.7945,VALID,0,VALID,20.3448,VALID,27,VALID,0.309375,
2009-09-11, 00:56:04,VALID,917.909,VALID,0,VALID,96.8098,VALID,0,VALID,20.3448,VALID,27,VALID,0.196094,
2009-09-11, 00:57:04,VALID,917.908,VALID,0,VALID,96.8403,VALID,0,VALID,20.3433,VALID,27,VALID,0.1625,
2009-09-11, 00:58:04,VALID,917.828,VALID,0,VALID,96.8174,VALID,0,VALID,20.3238,VALID,27,VALID,0.203516,
2009-09-11, 00:59:04,VALID,917.815,VALID,0,VALID,96.825,VALID,0,VALID,20.3238,VALID,27,VALID,0.280469,
2009-09-11, 01:00:04,VALID,917.78,VALID,0,VALID,96.8631,VALID,0,VALID,20.3433,VALID,27,VALID,0.259375,
2009-09-11, 01:01:04,VALID,917.776,VALID,0,VALID,96.7335,VALID,0,VALID,20.3058,VALID,27,VALID,0.263672,
2009-09-11, 01:02:04,VALID,917.776,VALID,0,VALID,96.5353,VALID,0,VALID,20.1873,VALID,27,VALID,0.197656,
2009-09-11, 01:03:04,VALID,917.723,VALID,0,VALID,96.3981,VALID,0,VALID,20.0703,VALID,27,VALID,0.117578,
2009-09-11, 01:04:04,VALID,917.752,VALID,0,VALID,96.6115,VALID,0,VALID,20.0508,VALID,27,VALID,0,
2009-09-11, 01:05:04,VALID,917.774,VALID,0,VALID,96.7716,VALID,0,VALID,20.0898,VALID,27,VALID,0.189063,
2009-09-11, 01:06:04,VALID,917.753,VALID,0,VALID,96.8403,VALID,0,VALID,20.1288,VALID,27,VALID,0.363672,
2009-09-11, 01:07:04,VALID,917.73,VALID,0,VALID,96.947,VALID,0,VALID,20.1873,VALID,27,VALID,0.340234,
2009-09-11, 01:08:04,VALID,917.753,VALID,0,VALID,96.9698,VALID,0,VALID,20.2263,VALID,27,VALID,0.0445312,
2009-09-11, 01:09:04,VALID,917.7,VALID,0,VALID,96.9927,VALID,0,VALID,20.3058,VALID,27,VALID,0.173828,
2009-09-11, 01:10:04,VALID,917.693,VALID,0,VALID,97.0156,VALID,0,VALID,20.3238,VALID,27,VALID,0,
2009-09-11, 01:11:04,VALID,917.66,VALID,0,VALID,96.9851,VALID,0,VALID,20.3838,VALID,27,VALID,0,
2009-09-11, 01:12:04,VALID,917.619,VALID,0,VALID,96.9851,VALID,0,VALID,20.4018,VALID,27,VALID,0,
2009-09-11, 01:13:04,VALID,917.632,VALID,0,VALID,96.9241,VALID,0,VALID,20.3823,VALID,27,VALID,0,
2009-09-11, 01:14:04,VALID,917.573,VALID,0,VALID,96.6344,VALID,0,VALID,20.3043,VALID,27,VALID,0,
2009-09-11, 01:15:04,VALID,917.595,VALID,0,VALID,96.6725,VALID,0,VALID,20.2263,VALID,27,VALID,0,
2009-09-11, 01:16:04,VALID,917.58,VALID,0,VALID,96.7564,VALID,0,VALID,20.2473,VALID,27,VALID,0,
2009-09-11, 01:17:04,VALID,917.578,VALID,0,VALID,96.8479,VALID,0,VALID,20.2863,VALID,27,VALID,0,
2009-09-11, 01:18:04,VALID,917.557,VALID,0,VALID,96.8326,VALID,0,VALID,20.2863,VALID,27,VALID,0,
2009-09-11, 01:19:04,VALID,917.56,VALID,0,VALID,96.8021,VALID,0,VALID,20.2653,VALID,27,VALID,0,
2009-09-11, 01:20:04,VALID,917.514,VALID,0,VALID,96.8403,VALID,0,VALID,20.2848,VALID,27,VALID,0,
2009-09-11, 01:21:04,VALID,917.534,VALID,0,VALID,96.8936,VALID,0,VALID,20.3643,VALID,27,VALID,0,
2009-09-11, 01:22:04,VALID,917.486,VALID,0,VALID,96.8784,VALID,0.107441,VALID,20.3628,VALID,27,VALID,0.218359,
2009-09-11, 01:23:04,VALID,917.455,VALID,0,VALID,96.8403,VALID,0,VALID,20.3838,VALID,27,VALID,0.168359,
2009-09-11, 01:24:04,VALID,917.466,VALID,0,VALID,96.764,VALID,0,VALID,20.3448,VALID,27,VALID,0.152344,
2009-09-11, 01:25:04,VALID,917.435,VALID,0,VALID,96.7488,VALID,0,VALID,20.3448,VALID,27,VALID,0.280078,
2009-09-11, 01:26:04,VALID,917.454,VALID,0,VALID,96.7716,VALID,0,VALID,20.3448,VALID,27,VALID,0.00859375,
2009-09-11, 01:27:04,VALID,917.452,VALID,0,VALID,96.8021,VALID,0,VALID,20.3643,VALID,27,VALID,0,
2009-09-11, 01:28:04,VALID,917.418,VALID,0,VALID,96.8174,VALID,0,VALID,20.3838,VALID,27,VALID,0,
2009-09-11, 01:29:04,VALID,917.403,VALID,0,VALID,96.7411,VALID,0,VALID,20.3628,VALID,27,VALID,0,
2009-09-11, 01:30:04,VALID,917.383,VALID,0,VALID,96.6497,VALID,0,VALID,20.3238,VALID,27,VALID,0,
2009-09-11, 01:31:04,VALID,917.371,VALID,0,VALID,96.6573,VALID,0,VALID,20.3043,VALID,27,VALID,0,
2009-09-11, 01:32:04,VALID,917.32,VALID,0,VALID,96.7793,VALID,0,VALID,20.3628,VALID,27,VALID,0,
2009-09-11, 01:33:04,VALID,917.318,VALID,0,VALID,96.8479,VALID,0,VALID,20.4408,VALID,27,VALID,0.253125,
2009-09-11, 01:34:04,VALID,917.275,VALID,0,VALID,96.7945,VALID,0,VALID,20.4408,VALID,27,VALID,0.166797,
2009-09-11, 01:35:04,VALID,917.206,VALID,0,VALID,96.7564,VALID,0,VALID,20.4603,VALID,27,VALID,0,
2009-09-11, 01:36:04,VALID,917.211,VALID,0,VALID,96.6878,VALID,0,VALID,20.4408,VALID,27,VALID,0,
2009-09-11, 01:37:04,VALID,917.22,VALID,0,VALID,96.4972,VALID,0,VALID,20.4018,VALID,27,VALID,0,
2009-09-11, 01:38:04,VALID,917.185,VALID,0,VALID,96.3066,VALID,0,VALID,20.2848,VALID,27,VALID,0,
2009-09-11, 01:39:04,VALID,917.178,VALID,0,VALID,96.2837,VALID,0,VALID,20.2263,VALID,27,VALID,0.337891,
2009-09-11, 01:40:04,VALID,917.153,VALID,0,VALID,96.4819,VALID,0,VALID,20.2458,VALID,27,VALID,0.507031,
2009-09-11, 01:41:04,VALID,917.177,VALID,0,VALID,96.5582,VALID,0.107441,VALID,20.2848,VALID,27,VALID,0.600391,
2009-09-11, 01:42:04,VALID,917.159,VALID,0,VALID,96.6268,VALID,0,VALID,20.2653,VALID,27,VALID,0.715625,
2009-09-11, 01:43:04,VALID,917.153,VALID,0,VALID,96.6039,VALID,0,VALID,20.2653,VALID,27,VALID,0.740625,
2009-09-11, 01:44:04,VALID,917.2,VALID,0,VALID,96.6344,VALID,0,VALID,20.2458,VALID,27,VALID,1.04258,
2009-09-11, 01:45:04,VALID,917.209,VALID,0,VALID,96.6573,VALID,0,VALID,20.2458,VALID,27,VALID,1.12656,
2009-09-11, 01:46:04,VALID,917.22,VALID,0,VALID,96.642,VALID,0,VALID,20.2263,VALID,27,VALID,0.813672,
2009-09-11, 01:47:04,VALID,917.258,VALID,0,VALID,96.6649,VALID,0,VALID,20.2263,VALID,27,VALID,0.901953,
2009-09-11, 01:48:04,VALID,917.279,VALID,0,VALID,96.6878,VALID,0,VALID,20.2263,VALID,28,VALID,0.896875,
2009-09-11, 01:49:04,VALID,917.256,VALID,0,VALID,96.6573,VALID,0,VALID,20.2068,VALID,28,VALID,0.739062,
2009-09-11, 01:50:04,VALID,917.275,VALID,0,VALID,96.7564,VALID,0,VALID,20.2263,VALID,95,VALID,0.923828,
2009-09-11, 01:51:04,VALID,917.234,VALID,0,VALID,96.7716,VALID,0,VALID,20.2458,VALID,98,VALID,0.900781,
2009-09-11, 01:52:04,VALID,917.199,VALID,0,VALID,96.7869,VALID,0,VALID,20.2653,VALID,98,VALID,0.778516,
2009-09-11, 01:53:04,VALID,917.17,VALID,0,VALID,96.7183,VALID,0,VALID,20.2458,VALID,98,VALID,0.353516,
2009-09-11, 01:54:04,VALID,917.132,VALID,0,VALID,96.6649,VALID,0,VALID,20.2068,VALID,98,VALID,0.612109,
2009-09-11, 01:55:04,VALID,917.147,VALID,0,VALID,96.6573,VALID,0,VALID,20.1873,VALID,98,VALID,0.546484,
2009-09-11, 01:56:05,VALID,917.134,VALID,0,VALID,96.6954,VALID,0,VALID,20.1873,VALID,98,VALID,0.792188,
2009-09-11, 01:57:05,VALID,917.14,VALID,0,VALID,96.7259,VALID,0,VALID,20.2068,VALID,98,VALID,0.871484,
2009-09-11, 01:58:05,VALID,917.153,VALID,0,VALID,96.7259,VALID,0.107441,VALID,20.1873,VALID,98,VALID,0.773828,
2009-09-11, 01:59:05,VALID,917.141,VALID,0,VALID,96.703,VALID,0,VALID,20.1888,VALID,98,VALID,0.715625,
2009-09-11, 02:00:05,VALID,917.177,VALID,0,VALID,96.7183,VALID,0,VALID,20.1888,VALID,98,VALID,0.836328,
2009-09-11, 02:01:05,VALID,917.18,VALID,0,VALID,96.7488,VALID,0,VALID,20.1483,VALID,98,VALID,0.535547,
2009-09-11, 02:02:05,VALID,917.19,VALID,0,VALID,96.7793,VALID,0,VALID,20.1693,VALID,98,VALID,0.696484,
2009-09-11, 02:03:05,VALID,917.19,VALID,0,VALID,96.8021,VALID,0,VALID,20.1678,VALID,98,VALID,0.983594,
2009-09-11, 02:04:05,VALID,917.156,VALID,0,VALID,96.8631,VALID,0,VALID,20.2068,VALID,98,VALID,0.976953,
2009-09-11, 02:05:05,VALID,917.158,VALID,0,VALID,96.8936,VALID,0,VALID,20.2278,VALID,98,VALID,0.994531,
2009-09-11, 02:06:05,VALID,917.149,VALID,0,VALID,96.9317,VALID,0,VALID,20.2458,VALID,99,VALID,0.616406,
2009-09-11, 02:07:05,VALID,917.132,VALID,0,VALID,96.9089,VALID,0,VALID,20.2653,VALID,127,VALID,0.967188,
2009-09-11, 02:08:05,VALID,917.163,VALID,0,VALID,96.9012,VALID,0,VALID,20.2458,VALID,139,VALID,0.511719,
2009-09-11, 02:09:05,VALID,917.161,VALID,0,VALID,96.9012,VALID,0,VALID,20.2863,VALID,139,VALID,0.754687,
2009-09-11, 02:10:05,VALID,917.142,VALID,0,VALID,96.886,VALID,0,VALID,20.2653,VALID,139,VALID,0.607031,
2009-09-11, 02:11:05,VALID,917.142,VALID,0,VALID,96.8707,VALID,0,VALID,20.2863,VALID,139,VALID,0.223047,
2009-09-11, 02:12:05,VALID,917.141,VALID,0,VALID,96.9012,VALID,0,VALID,20.2653,VALID,139,VALID,0.413672,
2009-09-11, 02:13:05,VALID,917.146,VALID,0,VALID,96.8784,VALID,0,VALID,20.2863,VALID,139,VALID,0.435937,
2009-09-11, 02:14:05,VALID,917.143,VALID,0,VALID,96.8784,VALID,0,VALID,20.2458,VALID,139,VALID,0.385547,
2009-09-11, 02:15:05,VALID,917.164,VALID,0,VALID,96.8631,VALID,0,VALID,20.2263,VALID,139,VALID,0.560938,
2009-09-11, 02:16:05,VALID,917.147,VALID,0,VALID,96.825,VALID,0,VALID,20.2083,VALID,139,VALID,0.719141,
2009-09-11, 02:17:05,VALID,917.144,VALID,0,VALID,96.8555,VALID,0,VALID,20.1873,VALID,139,VALID,0.484375,
2009-09-11, 02:18:05,VALID,917.139,VALID,0,VALID,96.8326,VALID,0,VALID,20.1873,VALID,139,VALID,0.390625,
2009-09-11, 02:19:05,VALID,917.141,VALID,0,VALID,96.825,VALID,0,VALID,20.1483,VALID,139,VALID,0.766406,
2009-09-11, 02:20:05,VALID,917.132,VALID,0,VALID,96.8021,VALID,0,VALID,20.1093,VALID,139,VALID,0.662109,
2009-09-11, 02:21:05,VALID,917.135,VALID,0,VALID,96.8174,VALID,0,VALID,20.1093,VALID,127,VALID,1.39297,
2009-09-11, 02:22:05,VALID,917.105,VALID,0,VALID,96.8403,VALID,0,VALID,20.0898,VALID,113,VALID,1.16406,
2009-09-11, 02:23:05,VALID,917.129,VALID,0,VALID,96.8707,VALID,0,VALID,20.0898,VALID,141,VALID,1.10508,
2009-09-11, 02:24:05,VALID,917.115,VALID,0,VALID,96.9012,VALID,0,VALID,20.0898,VALID,141,VALID,0.874219,
2009-09-11, 02:25:05,VALID,917.118,VALID,0,VALID,96.9012,VALID,0,VALID,20.0898,VALID,141,VALID,1.03359,
2009-09-11, 02:26:05,VALID,917.134,VALID,0,VALID,96.8936,VALID,0,VALID,20.1108,VALID,141,VALID,0.823828,
2009-09-11, 02:27:05,VALID,917.117,VALID,0,VALID,96.9012,VALID,0,VALID,20.0703,VALID,141,VALID,0.773047,
2009-09-11, 02:28:05,VALID,917.134,VALID,0,VALID,96.9241,VALID,0,VALID,20.0703,VALID,141,VALID,0.372266,
2009-09-11, 02:29:05,VALID,917.159,VALID,0,VALID,96.9165,VALID,0,VALID,20.0913,VALID,141,VALID,0.278516,
2009-09-11, 02:30:05,VALID,917.153,VALID,0,VALID,96.886,VALID,0,VALID,20.0703,VALID,141,VALID,0.382813,
2009-09-11, 02:31:05,VALID,917.162,VALID,0,VALID,96.886,VALID,0,VALID,20.0523,VALID,141,VALID,0.557031,
2009-09-11, 02:32:05,VALID,917.151,VALID,0,VALID,96.9012,VALID,0,VALID,20.0523,VALID,141,VALID,0.390234,
2009-09-11, 02:33:05,VALID,917.114,VALID,0,VALID,96.9241,VALID,0,VALID,20.0313,VALID,141,VALID,0.577734,
2009-09-11, 02:34:05,VALID,917.128,VALID,0,VALID,96.9698,VALID,0,VALID,20.0703,VALID,141,VALID,0.650391,
2009-09-11, 02:35:05,VALID,917.13,VALID,0,VALID,96.9622,VALID,0,VALID,20.0508,VALID,141,VALID,0.347266,
2009-09-11, 02:36:05,VALID,917.138,VALID,0,VALID,96.9927,VALID,0,VALID,20.0703,VALID,141,VALID,0.973437,
2009-09-11, 02:37:05,VALID,917.126,VALID,0,VALID,96.9927,VALID,0,VALID,20.0703,VALID,141,VALID,0.796094,
2009-09-11, 02:38:05,VALID,917.137,VALID,0,VALID,96.9927,VALID,0,VALID,20.0913,VALID,141,VALID,0.814062,
2009-09-11, 02:39:05,VALID,917.146,VALID,0,VALID,96.9927,VALID,0,VALID,20.0703,VALID,141,VALID,0.607813,
2009-09-11, 02:40:05,VALID,917.151,VALID,0,VALID,96.9851,VALID,0,VALID,20.0703,VALID,141,VALID,0.602734,
2009-09-11, 02:41:05,VALID,917.118,VALID,0,VALID,97.0156,VALID,0,VALID,20.1093,VALID,141,VALID,0.755859,
2009-09-11, 02:42:05,VALID,917.088,VALID,0,VALID,96.9698,VALID,0.107441,VALID,20.1108,VALID,141,VALID,0.449609,
2009-09-11, 02:43:05,VALID,917.084,VALID,0,VALID,96.947,VALID,0,VALID,20.0913,VALID,141,VALID,0.552344,
2009-09-11, 02:44:05,VALID,917.086,VALID,0,VALID,96.9546,VALID,0,VALID,20.0718,VALID,141,VALID,0.294922,
2009-09-11, 02:45:05,VALID,917.071,VALID,0,VALID,96.9012,VALID,0,VALID,20.0328,VALID,141,VALID,0.558594,
2009-09-11, 02:46:05,VALID,917.076,VALID,0,VALID,96.8707,VALID,0,VALID,20.0133,VALID,141,VALID,0.849609,
2009-09-11, 02:47:05,VALID,917.07,VALID,0,VALID,96.8936,VALID,0,VALID,19.9938,VALID,141,VALID,0.757813,
2009-09-11, 02:48:05,VALID,917.074,VALID,0,VALID,96.8936,VALID,0,VALID,19.9743,VALID,141,VALID,0.716797,
2009-09-11, 02:49:05,VALID,917.07,VALID,0,VALID,96.886,VALID,0,VALID,19.9548,VALID,141,VALID,0.562109,
2009-09-11, 02:50:05,VALID,917.076,VALID,0,VALID,96.9241,VALID,0,VALID,19.9158,VALID,141,VALID,0.645312,
2009-09-11, 02:51:05,VALID,917.069,VALID,0,VALID,96.9546,VALID,0,VALID,19.9353,VALID,141,VALID,0.396875,
2009-09-11, 02:52:05,VALID,917.1,VALID,0,VALID,96.9851,VALID,0,VALID,19.9353,VALID,141,VALID,0.433594,
2009-09-11, 02:53:05,VALID,917.08,VALID,0,VALID,97.0385,VALID,0,VALID,19.9353,VALID,141,VALID,0.934766,
2009-09-11, 02:54:05,VALID,917.053,VALID,0,VALID,97.0766,VALID,0,VALID,19.9548,VALID,141,VALID,0.362109,
2009-09-11, 02:55:05,VALID,917.074,VALID,0,VALID,97.069,VALID,0,VALID,19.9728,VALID,141,VALID,0.694141,
2009-09-11, 02:56:05,VALID,917.046,VALID,0,VALID,97.0766,VALID,0,VALID,19.9938,VALID,141,VALID,0.622656,
2009-09-11, 02:57:05,VALID,917.05,VALID,0,VALID,97.0613,VALID,0,VALID,20.0133,VALID,141,VALID,0.635938,
2009-09-11, 02:58:05,VALID,917.031,VALID,0,VALID,97.0385,VALID,0,VALID,20.0328,VALID,141,VALID,0.657812,
2009-09-11, 02:59:05,VALID,916.983,VALID,0,VALID,97.0308,VALID,0,VALID,19.9938,VALID,141,VALID,0.516016,
2009-09-11, 03:00:05,VALID,917.009,VALID,0,VALID,96.9927,VALID,0,VALID,19.9548,VALID,141,VALID,1.03828,
2009-09-11, 03:01:05,VALID,916.973,VALID,0,VALID,96.9775,VALID,0,VALID,19.9353,VALID,141,VALID,0.727734,
2009-09-11, 03:02:05,VALID,916.986,VALID,0,VALID,97.008,VALID,0,VALID,19.9158,VALID,141,VALID,0.914063,
2009-09-11, 03:03:05,VALID,917.011,VALID,0,VALID,97.0308,VALID,0,VALID,19.9158,VALID,141,VALID,0.458984,
2009-09-11, 03:04:05,VALID,917.002,VALID,0,VALID,97.0232,VALID,0,VALID,19.9158,VALID,141,VALID,0.452734,
2009-09-11, 03:05:05,VALID,917.003,VALID,0,VALID,96.9775,VALID,0,VALID,19.9158,VALID,141,VALID,0.235938,
2009-09-11, 03:06:05,VALID,917.043,VALID,0,VALID,97.0003,VALID,0,VALID,19.8558,VALID,141,VALID,0,
2009-09-11, 03:07:05,VALID,917.044,VALID,0,VALID,97.0537,VALID,0,VALID,19.8753,VALID,141,VALID,0,
2009-09-11, 03:08:05,VALID,917.051,VALID,0,VALID,97.1071,VALID,0,VALID,19.9143,VALID,141,VALID,0,
2009-09-11, 03:09:05,VALID,917.053,VALID,0,VALID,97.0994,VALID,0,VALID,19.9743,VALID,141,VALID,0,
2009-09-11, 03:10:05,VALID,917.058,VALID,0,VALID,97.1147,VALID,0,VALID,20.0133,VALID,141,VALID,0,
2009-09-11, 03:11:05,VALID,917.015,VALID,0,VALID,97.1223,VALID,0,VALID,20.0328,VALID,141,VALID,0.164453,
2009-09-11, 03:12:05,VALID,917.035,VALID,0,VALID,97.0994,VALID,0,VALID,20.0523,VALID,141,VALID,0.186719,
2009-09-11, 03:13:05,VALID,917.043,VALID,0,VALID,97.0613,VALID,0,VALID,20.0328,VALID,141,VALID,0.364453,
2009-09-11, 03:14:05,VALID,917.09,VALID,0,VALID,97.0613,VALID,0,VALID,20.0133,VALID,141,VALID,0.566016,
2009-09-11, 03:15:05,VALID,917.084,VALID,0,VALID,97.0537,VALID,0,VALID,20.0133,VALID,141,VALID,0.416797,
2009-09-11, 03:16:05,VALID,917.068,VALID,0,VALID,97.0613,VALID,0,VALID,20.0133,VALID,141,VALID,0.569922,
2009-09-11, 03:17:05,VALID,917.072,VALID,0,VALID,96.9241,VALID,0,VALID,19.9533,VALID,141,VALID,0.379687,
2009-09-11, 03:18:05,VALID,917.07,VALID,0,VALID,96.6268,VALID,0,VALID,19.8183,VALID,141,VALID,0.474609,
2009-09-11, 03:19:05,VALID,917.081,VALID,0,VALID,96.7716,VALID,0,VALID,19.7193,VALID,141,VALID,0.518359,
2009-09-11, 03:20:05,VALID,917.049,VALID,0,VALID,96.9241,VALID,0,VALID,19.7598,VALID,141,VALID,0.486328,
2009-09-11, 03:21:05,VALID,917.049,VALID,0,VALID,96.9927,VALID,0,VALID,19.7793,VALID,141,VALID,0.487109,
2009-09-11, 03:22:05,VALID,917.053,VALID,0,VALID,97.0385,VALID,0,VALID,19.7988,VALID,141,VALID,0.415625,
2009-09-11, 03:23:05,VALID,917.078,VALID,0,VALID,97.0232,VALID,0,VALID,19.8183,VALID,141,VALID,0.336719,
2009-09-11, 03:24:05,VALID,917.128,VALID,0,VALID,97.0461,VALID,0,VALID,19.8183,VALID,141,VALID,0.319141,
2009-09-11, 03:25:05,VALID,917.104,VALID,0,VALID,97.0613,VALID,0,VALID,19.8573,VALID,141,VALID,0.370313,
2009-09-11, 03:26:05,VALID,917.138,VALID,0,VALID,97.0766,VALID,0,VALID,19.8768,VALID,141,VALID,0.525391,
2009-09-11, 03:27:05,VALID,917.104,VALID,0,VALID,97.1071,VALID,0,VALID,19.9158,VALID,141,VALID,0.424219,
2009-09-11, 03:28:05,VALID,917.131,VALID,0,VALID,97.1376,VALID,0,VALID,19.9353,VALID,141,VALID,0.464844,
2009-09-11, 03:29:05,VALID,917.119,VALID,0,VALID,97.0994,VALID,0,VALID,19.9548,VALID,141,VALID,0.379297,
2009-09-11, 03:30:05,VALID,917.154,VALID,0,VALID,97.1452,VALID,0,VALID,19.9743,VALID,141,VALID,0.199609,
2009-09-11, 03:31:05,VALID,917.092,VALID,0,VALID,97.1452,VALID,0,VALID,19.9923,VALID,141,VALID,0.245312,
2009-09-11, 03:32:05,VALID,917.108,VALID,0,VALID,97.1147,VALID,0,VALID,20.0118,VALID,141,VALID,0.109766,
2009-09-11, 03:33:05,VALID,917.101,VALID,0,VALID,97.0766,VALID,0,VALID,20.0328,VALID,141,VALID,0.251563,
2009-09-11, 03:34:05,VALID,917.09,VALID,0,VALID,96.9851,VALID,0,VALID,20.0523,VALID,141,VALID,0.240625,
2009-09-11, 03:35:05,VALID,917.075,VALID,0,VALID,96.9317,VALID,0,VALID,19.9938,VALID,141,VALID,0.362891,
2009-09-11, 03:36:05,VALID,917.083,VALID,0,VALID,96.8784,VALID,0,VALID,19.9743,VALID,141,VALID,0.499219,
2009-09-11, 03:37:05,VALID,917.07,VALID,0,VALID,96.947,VALID,0,VALID,19.9533,VALID,141,VALID,0.514844,
2009-09-11, 03:38:05,VALID,917.114,VALID,0,VALID,96.9241,VALID,0,VALID,19.9338,VALID,141,VALID,0.450781,
2009-09-11, 03:39:05,VALID,917.103,VALID,0,VALID,96.9165,VALID,0,VALID,19.9338,VALID,141,VALID,0.34375,
2009-09-11, 03:40:05,VALID,917.126,VALID,0,VALID,96.9165,VALID,0,VALID,19.9548,VALID,141,VALID,0.442187,
2009-09-11, 03:41:05,VALID,917.164,VALID,0,VALID,96.9622,VALID,0,VALID,19.9548,VALID,141,VALID,0.494141,
2009-09-11, 03:42:05,VALID,917.158,VALID,0,VALID,96.9851,VALID,0,VALID,19.9533,VALID,141,VALID,0.419922,
2009-09-11, 03:43:05,VALID,917.178,VALID,0,VALID,97.0156,VALID,0,VALID,19.9923,VALID,141,VALID,0.171094,
2009-09-11, 03:44:05,VALID,917.185,VALID,0,VALID,97.0385,VALID,0,VALID,20.0523,VALID,141,VALID,0.317578,
2009-09-11, 03:45:05,VALID,917.201,VALID,0,VALID,97.0156,VALID,0,VALID,20.0508,VALID,141,VALID,0.148828,
2009-09-11, 03:46:05,VALID,917.202,VALID,0,VALID,97.0003,VALID,0,VALID,20.0913,VALID,141,VALID,0,
2009-09-11, 03:47:05,VALID,917.195,VALID,0,VALID,96.9775,VALID,0,VALID,20.1303,VALID,141,VALID,0.112109,